Simultaneous Nadir Overpasses (SNOs) Predictions

Prediction of SNOs between AURA and NPP Satellite Orbit:

Table of predicted SNOs for the next 14.0 days since TLE Epoch: 9/24/2022
Index Date (AURA) Time (AURA) Lat,Lon (AURA) SZA (AURA ) Date (NPP) Time (NPP) Lat,Lon (NPP) SZA (NPP ) Distance(km) Time Diff (sec)
1 09/25/2022 02:52:38 -79.27,-147.73 86.88 09/25/2022 02:51:58 -79.27,-147.83 86.83 2.16 40
2 09/25/2022 03:41:55 79.61, 22.23 92.66 09/25/2022 03:42:32 79.61, 22.28 92.63 0.96 37
3 09/27/2022 19:09:03 -79.45, -30.66 86.15 09/27/2022 19:08:48 -79.46, -30.53 86.16 2.93 15
4 09/27/2022 19:58:24 79.64, 138.27 93.61 09/27/2022 19:59:27 79.64, 138.26 93.57 0.36 63
5 09/30/2022 10:36:10 79.26, -83.72 95.10 09/30/2022 10:35:04 79.26, -83.64 95.14 1.93 66
6 09/30/2022 11:25:32 -79.46, 85.27 85.17 09/30/2022 11:25:44 -79.45, 85.17 85.16 2.20 12
7 10/03/2022 02:52:36 79.32, 32.57 96.00 10/03/2022 02:51:57 79.32, 32.54 96.03 0.69 39
8 10/03/2022 03:41:56 -79.60,-157.88 84.38 10/03/2022 03:42:34 -79.60,-157.81 84.43 1.62 38
9 10/05/2022 19:09:02 79.40, 149.01 96.86 10/05/2022 19:08:50 79.40, 148.97 96.88 0.76 12



Historial Predications of SNOs between AURA and NPP
